Regional Weather Roundup
Issued by NWS

Home | Current Version | Previous Version | Graphics & Text | Print | Product List | Glossary On
Versions: 1 2 3 4 5 6 7 8 9 10 11 12 13 14 15 16 17 18 19 20 21 22 23 24 25 26 27 28 29 30 31 32 33 34 35 36 37 38 39 40 41 42 43 44 45 46 47 48 49 50
000
ASUS43 KTOP 261759
RWRKS

WEATHER ROUNDUP FOR KANSAS
NATIONAL WEATHER SERVICE GOODLAND KS
100 PM CDT WED JUL 26 2017

NOTE:  "FAIR" INDICATES FEW OR NO CLOUDS BELOW 12,000 FEET WITH NO
SIGNIFICANT WEATHER AND/OR OBSTRUCTIONS TO VISIBILITY.

KSZ001>006-013>018-027>032-041>047-261900-
NORTHWEST KANSAS

CITY           SKY/WX    TMP DP  RH WIND       PRES   REMARKS
GOODLAND       CLOUDY    77  66  68 N22G30    30.10S
6HR MIN TEMP:  70; 6HR MAX TEMP:  78;

HAYS           CLOUDY    82  69  64 W3        29.93F
HILL CITY      MOSUNNY   90  69  50 NW5       29.94S
6HR MIN TEMP:  75; 6HR MAX TEMP:  91; 6HR PCP:  0.01;

RUSSELL        CLOUDY    82  69  64 W8        29.93R
6HR MIN TEMP:  77; 6HR MAX TEMP:  88; 6HR PCP: TRACE;

$$

KSZ061>065-074>080-084>089-261900-
SOUTHWEST KANSAS

CITY           SKY/WX    TMP DP  RH WIND       PRES   REMARKS
DODGE CITY     PTSUNNY   83  68  60 W10       30.00R
6HR MIN TEMP:  78; 6HR MAX TEMP:  88; 6HR PCP:  0.02;

ELKHART          N/A     89  57  33 W5          N/A
GARDEN CITY    CLOUDY    88  65  46 NW9       30.02S
6HR MIN TEMP:  76; 6HR MAX TEMP:  88;

GREAT BEND     LGT RAIN  81  73  76 N8        29.93F
LIBERAL        CLOUDY    88  66  48 NW9       30.04S
$$

KSZ066>073-081>083-090>101-261900-
SOUTHEAST KANSAS

CITY           SKY/WX    TMP DP  RH WIND       PRES   REMARKS
CHANUTE        CLOUDY    88  73  61 S13       30.02F HX  95
6HR MIN TEMP:  78; 6HR MAX TEMP:  89;

COFFEYVILLE    CLOUDY    92  75  57 S12       30.00F HX 103
6HR MIN TEMP:  78; 6HR MAX TEMP:  92;

HUTCHINSON     CLOUDY    90  72  55 E9        29.94F HX  97
6HR MIN TEMP:  79; 6HR MAX TEMP:  90;

MEDICINE LODGE   N/A     99  66  33 S14G25    29.92F HX 103
NEWTON         CLOUDY    82  73  74 SE12      29.98F
PARSONS        CLOUDY    90  74  59 S8G17     30.02F HX  99
6HR MIN TEMP:  77; 6HR MAX TEMP:  90;

WICHITA INTL   CLOUDY    96  68  39 S16G25    29.94F HX 101
6HR MIN TEMP:  80; 6HR MAX TEMP:  97;

WICHITA JABRA  CLOUDY    91  71  51 S12       29.96F HX  97
6HR MIN TEMP:  79; 6HR MAX TEMP:  91;

WICHITA MCCONL PTSUNNY   92  70  48 S14       29.96F HX  98
WINFIELD       CLOUDY    96  71  44 S15       29.98F HX 103
6HR MIN TEMP:  77; 6HR MAX TEMP:  96;

$$

KSZ007>012-019>026-033>040-048>060-102>105-261900-
NORTHEAST KANSAS

CITY           SKY/WX    TMP DP  RH WIND       PRES   REMARKS
CONCORDIA      LGT RAIN  74  74 100 S18       29.97R FOG
6HR MIN TEMP:  74; 6HR MAX TEMP:  78; 6HR PCP:  0.47;

EMPORIA        LGT RAIN  79  75  87 E12       30.00F
6HR MIN TEMP:  75; 6HR MAX TEMP:  79; 6HR PCP:  0.15;

LAWRENCE       CLOUDY    77  76  96 SE9       29.99F
6HR MIN TEMP:  76; 6HR MAX TEMP:  81; 6HR PCP:  0.17;

MANHATTAN      LGT RAIN  78  75  90 E3        29.97S FOG
6HR MIN TEMP:  75; 6HR MAX TEMP:  78; 6HR PCP:  0.25;

OLATHE IND     LGT RAIN  79  75  87 SE6       30.04F FOG
6HR MIN TEMP:  77; 6HR MAX TEMP:  80; 6HR PCP:  0.01;

OLATHE EXE     LGT RAIN  77  77 100 S5        30.04F
6HR MIN TEMP:  76; 6HR MAX TEMP:  79; 6HR PCP:  0.01;

SALINA         CLOUDY    85  72  65 VRB6      29.98R
6HR MIN TEMP:  78; 6HR MAX TEMP:  85; 6HR PCP:  0.05;

TOPEKA BILLARD LGT RAIN  78  76  93 SE7       29.98F
6HR MIN TEMP:  75; 6HR MAX TEMP:  80; 6HR PCP:  0.34;

TOPEKA FORBES  LGT RAIN  78  76  93 SE12      29.99F
6HR MIN TEMP:  76; 6HR MAX TEMP:  80; 6HR PCP:  0.25;

$$




USA.gov is the U.S. government's official web portal to all federal, state and local government web resources and services.